SCP
0 0 -0 -0 -0 -0 -0 -0 -0 -0 -0 -0 -0 -0 -0 -0 -1 -0 -0 -0 -0 -0 -0 -0 -0 -0 -0 -0 -0 -0 -0 -0 -0 -0 -0 -0 0 0 0 0 0 0 0
0 0 -0 -0 -0 -0 -0 -0 -0 -0 -0 -0 -0 -0 -0 -0 -0 -0 -0 -0 -0 -0 -0 -0 -0 0 -0 -0 -0 -0 -0 -0 -0 0 0 0 0 0 0 0 0 0 0
0 0 0 -0 -0 -0 -0 -0 -0 -0 -0 -0 -0 -0 -0 -0 -0 -0 -0 -0 -0 -0 -0 -0 0 -0 -0 -0 -0 0 0 0 0 0 0 0 0 0 0 0 0 0 0
0 1 0 -0 -0 -0 -0 -0 -0 -0 -0 -0 -0 -0 -0 -0 -0 -0 -0 -0 -0 -0 -0 -0 -0 -0 -0 0 0 0 0 0 0 0 0 0 0 0 0 0 0 0 0
0 1 0 -0 -0 -0 -0 -0 -0 -0 -0 -0 -0 -0 -0 -0 -0 0 0 0 -0 -0 -0 -0 -0 -0 0 0 0 0 0 0 0 -0 -0 0 0 0 0 1 1 1 0
0 0 -0 -0 -0 -0 -0 -0 -0 -0 -0 -0 -0 -0 -0 -0 0 0 0 0 0 -0 -0 0 0 0 0 0 0 0 0 0 -0 -0 0 0 1 1 1 1 0 0 0
0 0 -0 -0 -0 -0 -0 -0 -0 -0 -0 -0 -0 -0 -0 -0 -0 -0 0 0 0 -0 -0 0 0 0 0 0 0 0 0 0 0 0 0 1 1 0 0 0 0 0 0
-1 0 -0 -0 -0 -0 -0 -0 -0 -0 0 0 -0 -0 -0 0 -0 -0 -0 -0 -0 0 0 0 0 0 0 0 0 0 0 0 0 0 0 0 0 0 0 0 0 0 0
1 0 0 0 0 -0 0 -0 0 -0 0 0 0 -0 -0 0 -0 -0 -0 -0 0 0 -0 0 0 0 0 0 0 0 0 0 0 0 0 0 0 0 0 0 0 0 0
1 1 0 0 0 0 0 0 0 0 0 0 0 0 0 0 -0 -0 -0 -0 0 0 -0 0 0 0 0 0 0 0 0 0 0 0 0 0 0 0 0 0 0 0 0
1 0 0 0 0 0 0 0 0 0 0 0 0 0 0 -0 -0 -0 -0 -0 0 0 0 0 0 0 0 0 0 0 0 0 0 0 0 0 0 0 0 0 0 0 0
0 0 0 0 0 0 0 0 0 0 0 0 0 0 0 -0 -0 -0 -0 -0 -0 -0 -0 -0 -0 -0 0 0 0 0 0 0 0 0 0 0 0 0 0 0 0 0 0
0 1 0 0 0 0 0 0 0 0 0 0 0 0 0 0 -0 -0 -0 -0 0 -0 -0 0 0 0 0 0 0 0 0 0 0 0 0 0 0 0 0 0 0 0 0
0 0 0 0 0 0 0 0 0 0 0 0 0 0 0 0 -0 -0 -0 0 0 0 0 0 0 0 0 0 0 0 0 0 0 0 0 0 0 0 0 0 0 0 0
0 0 0 0 0 0 0 0 0 0 0 0 0 0 0 -0 -0 0 0 0 0 0 0 0 0 0 0 0 0 0 0 0 0 0 0 0 0 0 0 0 0 0 0
0 0 0 0 0 0 0 0 0 0 0 0 0 0 0 0 0 0 0 0 0 0 0 0 0 0 0 0 0 0 0 0 0 0 0 0 0 0 0 0 0 0 0
0 0 0 0 0 0 0 0 0 0 0 0 0 0 0 0 0 0 0 0 0 0 0 0 0 0 0 0 0 0 0 0 0 0 0 0 0 0 0 0 0 0 0
0 0 0 0 0 0 0 0 0 0 0 0 0 0 0 0 0 0 0 0 0 0 0 0 0 0 0 0 0 0 0 0 0 0 0 0 0 0 0 0 0 0 0
0 0 0 0 0 0 0 0 0 0 0 0 0 0 0 0 0 0 0 0 0 0 0 0 0 0 0 0 0 0 0 0 0 0 0 0 0 0 0 0 0 0 0
0 0 0 0 0 0 0 0 0 0 0 0 0 0 0 0 0 0 0 0 0 0 0 0 0 0 0 0 0 0 0 0 0 0 0 0 0 0 0 0 0 0 0
0 0 0 1 0 0 0 0 0 0 0 0 0 0 0 0 0 0 0 0 0 0 0 0 0 0 0 0 0 0 0 0 0 0 0 0 0 0 0 0 0 0 0
3 1 2 2 2 1 1 1 1 1 0 0 0 0 0 0 0 0 0 0 0 0 0 0 0 0 0 0 0 0 0 0 0 0 0 0 0 0 0 0 0 0 0
3 0 0 1 3 2 2 2 2 2 1 0 0 0 0 0 0 0 0 0 0 0 0 0 0 0 0 0 0 0 0 0 0 0 0 0 0 0 0 0 0 0 0
3 1 0 0 1 3 2 1 2 1 1 1 1 1 0 0 0 0 0 0 0 0 0 0 0 0 0 0 0 0 0 0 0 0 0 0 0 0 0 0 0 0 0
1 0 0 0 0 0 2 1 1 1 1 0 0 0 0 0 0 0 0 0 0 0 0 0 0 0 0 0 0 0 0 0 0 0 0 0 0 0 0 0 0 0 0
0 0 0 0 -0 0 1 0 0 1 1 1 0 0 0 0 0 0 0 0 0 0 0 0 0 0 0 0 0 0 0 0 0 0 0 0 0 0 0 0 0 0 0
Wind_Speed_500mb
50 66 64 60 56 52 52 54 56 55 54 52 49 48 47 46 46 43 38 35 34 32 31 29 27 23 21 18 15 14 14 13 13 17 16 13 15 15 24 28 27 23 23
62 66 65 62 57 53 52 52 54 54 54 54 52 51 49 46 43 40 38 37 36 32 30 26 24 22 20 17 16 17 18 18 16 13 13 14 19 19 23 28 27 27 27
65 66 65 62 59 54 51 51 53 53 53 54 52 50 46 42 39 38 38 35 32 29 26 22 21 20 19 18 17 18 19 23 19 12 8 11 17 18 16 24 30 29 29
70 67 67 65 61 56 52 50 50 52 52 51 49 48 44 40 37 37 34 31 28 25 22 20 19 18 18 18 17 19 16 10 9 3 2 8 9 9 12 23 28 30 30
74 69 68 65 63 57 52 49 48 49 51 52 48 45 41 38 35 33 29 27 24 21 20 17 16 17 18 19 20 19 14 9 7 3 7 11 11 10 13 22 30 32 35
74 72 69 68 65 59 53 49 47 48 50 50 47 43 39 35 32 29 25 23 21 19 17 15 16 17 20 21 21 17 14 8 4 2 8 10 13 13 17 27 35 40 42
77 80 73 69 67 64 56 50 46 45 47 47 46 42 37 32 28 26 21 20 19 16 15 14 15 19 20 20 20 15 13 11 3 7 12 13 12 15 25 35 41 41 41
83 84 77 71 70 66 60 52 46 43 44 45 44 41 36 31 26 22 19 18 16 14 14 13 14 19 25 24 22 15 10 9 12 17 16 9 11 21 33 41 46 43 40
89 86 78 75 73 68 61 56 48 44 42 42 41 38 34 29 25 21 18 16 14 13 12 11 13 17 21 18 15 14 16 16 14 17 7 12 22 31 39 47 45 46 40
86 83 81 78 77 73 65 58 52 45 41 40 40 36 32 28 24 22 18 14 12 12 11 12 13 17 13 10 6 11 10 14 11 11 7 20 30 35 45 43 46 41 38
87 84 82 83 81 77 70 63 55 46 42 40 39 36 32 27 23 20 17 14 11 11 14 14 14 15 9 10 9 11 13 13 6 5 11 25 29 39 41 45 47 46 45
93 88 85 87 86 81 74 69 60 52 45 42 39 35 31 27 23 18 18 16 10 11 16 14 13 8 3 3 11 17 21 21 13 15 18 27 34 38 41 46 48 53 59
100 91 86 86 85 84 81 73 65 55 47 43 39 34 32 29 26 25 19 19 14 14 11 8 1 6 7 6 10 20 25 23 17 21 25 29 33 35 43 48 49 59 59
94 91 85 84 86 84 77 72 65 58 51 47 43 38 35 30 26 25 20 11 9 3 7 6 8 10 11 10 14 20 24 23 20 21 21 28 27 37 43 52 58 61 56
90 95 87 83 83 81 77 71 65 59 53 48 44 40 37 33 26 19 15 7 7 4 4 10 12 8 11 17 24 24 18 18 16 22 25 20 28 38 36 47 54 54 54
80 93 87 83 79 76 75 71 66 60 53 50 45 44 37 29 23 14 13 10 12 11 1 9 12 12 21 27 30 24 21 17 21 25 26 25 35 38 40 46 53 51 50
81 79 88 85 78 73 67 67 66 61 57 52 46 46 41 31 27 25 21 19 18 9 12 18 25 29 34 30 21 18 15 14 19 24 28 29 33 36 36 43 46 51 48
92 78 86 84 79 70 62 64 63 58 56 51 48 42 34 34 34 32 26 23 23 18 16 20 23 29 32 20 19 15 14 19 21 23 20 24 28 22 35 39 44 43 46
94 86 81 84 82 78 64 57 60 58 54 46 42 35 27 26 34 31 30 28 26 24 21 24 27 28 24 19 17 16 20 17 24 17 18 24 19 25 34 35 39 37 47
96 93 87 84 80 77 66 59 58 56 46 40 34 32 29 28 23 30 35 31 31 25 24 26 24 25 21 18 16 19 24 27 23 19 23 19 20 26 34 32 30 42 39
86 96 97 87 86 83 79 75 65 57 56 49 39 34 34 34 20 25 32 28 29 24 23 24 23 18 16 18 22 17 17 16 17 21 25 12 24 30 25 30 41 41 29
75 86 88 93 91 86 82 72 67 65 59 50 46 40 40 37 24 22 24 25 22 22 21 20 14 14 14 18 14 13 8 13 10 25 15 20 31 25 24 34 32 32 32
68 64 64 76 91 92 82 76 72 69 59 53 47 43 47 34 27 24 25 25 25 21 17 13 15 14 15 11 9 9 5 6 28 9 21 25 33 26 31 26 29 28 29
93 73 48 42 62 91 84 82 77 73 66 62 50 50 45 37 30 25 27 22 18 12 10 12 10 12 8 6 7 8 4 9 8 15 18 39 45 36 30 27 23 32 27
96 81 69 46 51 63 81 81 74 69 56 49 46 52 47 41 33 27 23 21 16 14 9 10 9 9 8 8 8 10 11 8 11 18 36 48 47 44 30 28 35 29 25
79 106 85 104 67 91 74 63 70 55 54 53 53 50 47 40 35 29 25 20 13 7 9 9 6 3 2 5 9 14 18 17 18 16 30 43 49 48 38 33 36 34 41
Wind_Direction_500mb
177 170 166 165 160 154 151 151 152 153 152 149 148 147 146 148 149 146 141 134 129 125 120 117 112 109 101 97 94 89 85 85 93 79 63 40 32 26 27 19 9 3 354
176 172 169 168 163 157 154 152 152 152 151 148 146 145 145 146 146 143 137 132 129 125 121 118 116 113 108 102 92 86 84 81 97 77 58 43 27 32 26 17 5 358 346
182 175 173 172 167 161 158 154 154 153 151 149 147 147 146 147 144 139 135 131 128 124 120 118 113 106 99 91 83 80 89 91 99 89 46 27 29 21 2 3 0 353 337
184 181 177 176 171 164 162 158 155 153 153 151 148 148 146 146 144 138 134 131 128 124 120 114 107 98 88 78 70 71 76 94 95 54 324 341 359 350 339 344 344 340 333
184 182 181 180 175 169 165 162 157 155 154 155 152 148 147 147 143 137 133 131 127 121 112 107 98 86 75 66 63 71 73 67 81 54 271 322 313 288 324 329 334 331 324
185 181 183 182 178 173 168 166 159 158 158 156 153 149 149 148 142 137 135 130 123 116 108 99 84 73 66 69 77 69 72 64 139 305 335 330 308 307 333 328 327 326 322
185 182 184 183 181 176 172 169 164 162 159 157 153 152 150 149 144 138 135 127 118 113 101 85 74 70 77 84 87 67 61 52 295 326 321 326 300 330 325 325 327 328 326
178 181 181 184 183 178 174 171 168 165 163 161 157 155 153 152 145 141 134 125 120 107 93 83 73 81 93 88 84 63 43 26 331 323 335 346 312 329 325 331 336 335 330
176 178 182 182 183 179 177 174 172 170 168 165 160 159 158 153 149 143 135 130 115 99 86 76 80 103 99 87 74 38 4 350 326 322 331 317 324 333 335 343 342 337 332
179 180 182 181 180 179 179 178 176 174 171 170 168 165 163 158 154 147 140 128 112 94 82 83 97 111 111 69 35 2 337 331 330 340 301 314 329 339 346 343 342 344 340
179 182 183 180 179 178 179 181 180 177 175 175 173 169 170 164 158 148 134 121 112 100 93 95 110 123 89 77 26 331 318 340 1 8 288 313 332 343 337 340 344 349 349
182 183 183 180 180 179 181 183 182 181 179 180 179 174 171 168 160 150 134 122 124 107 105 115 108 124 76 351 329 316 316 324 331 323 308 327 339 331 333 343 348 347 348
183 182 183 182 181 182 184 184 185 184 183 182 181 178 178 174 168 149 132 123 111 102 104 105 125 193 243 283 315 309 315 315 317 314 322 329 324 328 339 347 350 351 354
183 184 183 183 183 186 187 188 187 187 188 185 182 181 184 176 161 156 148 137 143 68 277 236 263 243 221 261 292 306 307 306 308 317 315 315 321 338 343 347 342 351 353
181 185 186 186 187 188 190 191 190 189 190 185 184 184 184 185 179 159 167 160 210 258 287 231 222 265 223 268 298 294 300 304 307 310 321 318 325 344 340 346 344 353 354
178 185 186 189 190 191 190 190 190 190 187 185 187 187 188 189 182 183 190 223 246 271 249 186 212 262 290 302 307 295 288 290 318 318 326 326 329 336 337 348 341 346 352
178 181 188 191 191 191 190 189 188 186 183 185 187 191 195 194 190 201 202 225 242 225 250 271 287 289 311 303 297 291 296 310 315 313 319 323 323 338 338 339 335 344 350
176 177 187 191 190 185 181 184 182 182 184 184 184 185 193 206 207 204 201 216 224 215 232 265 282 285 307 294 295 283 289 300 297 297 299 311 328 326 326 324 338 341 346
185 176 183 191 189 184 180 180 179 174 175 177 179 178 185 194 209 211 215 220 227 228 247 257 270 284 298 290 290 284 302 284 290 276 297 306 304 308 325 325 333 337 341
189 180 183 188 189 185 182 181 175 170 173 182 187 189 193 202 213 225 223 228 226 233 250 263 278 297 292 295 297 294 294 285 271 260 320 305 294 316 325 337 335 333 343
190 183 184 187 190 189 185 181 181 173 177 186 194 195 202 207 216 221 220 227 229 236 253 275 284 286 289 302 316 319 289 271 258 268 315 296 312 327 341 339 332 331 333
186 184 185 188 186 186 182 184 181 174 173 186 192 197 202 204 209 208 216 227 232 245 259 268 275 293 306 320 319 323 280 279 263 293 266 289 335 341 335 333 332 331 332
185 176 167 181 189 187 186 183 183 186 185 183 188 196 195 199 204 213 216 229 239 249 255 268 295 312 308 288 320 349 311 303 318 240 286 299 336 345 346 346 353 340 338
179 174 178 193 195 193 191 192 192 191 188 194 196 187 186 193 202 214 221 227 245 234 276 300 319 306 283 301 318 347 1 314 315 310 296 311 333 350 352 356 345 335 328
196 202 228 243 230 218 200 201 200 198 191 187 185 181 185 197 206 208 213 227 222 262 275 291 275 281 302 329 352 356 335 330 280 302 310 317 325 337 340 327 325 321 316
197 193 206 215 277 265 208 202 199 194 188 188 185 185 195 200 203 207 219 210 236 241 258 251 279 305 341 358 6 3 351 343 323 323 313 316 322 330 330 322 319 307 308
Wind_Speed_850mb
50 66 64 60 56 52 52 54 56 55 54 52 49 48 47 46 46 43 38 35 34 32 31 29 27 23 21 18 15 14 14 13 13 17 16 13 15 15 24 28 27 23 23
62 66 65 62 57 53 52 52 54 54 54 54 52 51 49 46 43 40 38 37 36 32 30 26 24 22 20 17 16 17 18 18 16 13 13 14 19 19 23 28 27 27 27
65 66 65 62 59 54 51 51 53 53 53 54 52 50 46 42 39 38 38 35 32 29 26 22 21 20 19 18 17 18 19 23 19 12 8 11 17 18 16 24 30 29 29
70 67 67 65 61 56 52 50 50 52 52 51 49 48 44 40 37 37 34 31 28 25 22 20 19 18 18 18 17 19 16 10 9 3 2 8 9 9 12 23 28 30 30
74 69 68 65 63 57 52 49 48 49 51 52 48 45 41 38 35 33 29 27 24 21 20 17 16 17 18 19 20 19 14 9 7 3 7 11 11 10 13 22 30 32 35
74 72 69 68 65 59 53 49 47 48 50 50 47 43 39 35 32 29 25 23 21 19 17 15 16 17 20 21 21 17 14 8 4 2 8 10 13 13 17 27 35 40 42
77 80 73 69 67 64 56 50 46 45 47 47 46 42 37 32 28 26 21 20 19 16 15 14 15 19 20 20 20 15 13 11 3 7 12 13 12 15 25 35 41 41 41
83 84 77 71 70 66 60 52 46 43 44 45 44 41 36 31 26 22 19 18 16 14 14 13 14 19 25 24 22 15 10 9 12 17 16 9 11 21 33 41 46 43 40
89 86 78 75 73 68 61 56 48 44 42 42 41 38 34 29 25 21 18 16 14 13 12 11 13 17 21 18 15 14 16 16 14 17 7 12 22 31 39 47 45 46 40
86 83 81 78 77 73 65 58 52 45 41 40 40 36 32 28 24 22 18 14 12 12 11 12 13 17 13 10 6 11 10 14 11 11 7 20 30 35 45 43 46 41 38
87 84 82 83 81 77 70 63 55 46 42 40 39 36 32 27 23 20 17 14 11 11 14 14 14 15 9 10 9 11 13 13 6 5 11 25 29 39 41 45 47 46 45
93 88 85 87 86 81 74 69 60 52 45 42 39 35 31 27 23 18 18 16 10 11 16 14 13 8 3 3 11 17 21 21 13 15 18 27 34 38 41 46 48 53 59
100 91 86 86 85 84 81 73 65 55 47 43 39 34 32 29 26 25 19 19 14 14 11 8 1 6 7 6 10 20 25 23 17 21 25 29 33 35 43 48 49 59 59
94 91 85 84 86 84 77 72 65 58 51 47 43 38 35 30 26 25 20 11 9 3 7 6 8 10 11 10 14 20 24 23 20 21 21 28 27 37 43 52 58 61 56
90 95 87 83 83 81 77 71 65 59 53 48 44 40 37 33 26 19 15 7 7 4 4 10 12 8 11 17 24 24 18 18 16 22 25 20 28 38 36 47 54 54 54
80 93 87 83 79 76 75 71 66 60 53 50 45 44 37 29 23 14 13 10 12 11 1 9 12 12 21 27 30 24 21 17 21 25 26 25 35 38 40 46 53 51 50
81 79 88 85 78 73 67 67 66 61 57 52 46 46 41 31 27 25 21 19 18 9 12 18 25 29 34 30 21 18 15 14 19 24 28 29 33 36 36 43 46 51 48
92 78 86 84 79 70 62 64 63 58 56 51 48 42 34 34 34 32 26 23 23 18 16 20 23 29 32 20 19 15 14 19 21 23 20 24 28 22 35 39 44 43 46
94 86 81 84 82 78 64 57 60 58 54 46 42 35 27 26 34 31 30 28 26 24 21 24 27 28 24 19 17 16 20 17 24 17 18 24 19 25 34 35 39 37 47
96 93 87 84 80 77 66 59 58 56 46 40 34 32 29 28 23 30 35 31 31 25 24 26 24 25 21 18 16 19 24 27 23 19 23 19 20 26 34 32 30 42 39
86 96 97 87 86 83 79 75 65 57 56 49 39 34 34 34 20 25 32 28 29 24 23 24 23 18 16 18 22 17 17 16 17 21 25 12 24 30 25 30 41 41 29
75 86 88 93 91 86 82 72 67 65 59 50 46 40 40 37 24 22 24 25 22 22 21 20 14 14 14 18 14 13 8 13 10 25 15 20 31 25 24 34 32 32 32
68 64 64 76 91 92 82 76 72 69 59 53 47 43 47 34 27 24 25 25 25 21 17 13 15 14 15 11 9 9 5 6 28 9 21 25 33 26 31 26 29 28 29
93 73 48 42 62 91 84 82 77 73 66 62 50 50 45 37 30 25 27 22 18 12 10 12 10 12 8 6 7 8 4 9 8 15 18 39 45 36 30 27 23 32 27
96 81 69 46 51 63 81 81 74 69 56 49 46 52 47 41 33 27 23 21 16 14 9 10 9 9 8 8 8 10 11 8 11 18 36 48 47 44 30 28 35 29 25
79 106 85 104 67 91 74 63 70 55 54 53 53 50 47 40 35 29 25 20 13 7 9 9 6 3 2 5 9 14 18 17 18 16 30 43 49 48 38 33 36 34 41
Wind_Direction_850mb
177 170 166 165 160 154 151 151 152 153 152 149 148 147 146 148 149 146 141 134 129 125 120 117 112 109 101 97 94 89 85 85 93 79 63 40 32 26 27 19 9 3 354
176 172 169 168 163 157 154 152 152 152 151 148 146 145 145 146 146 143 137 132 129 125 121 118 116 113 108 102 92 86 84 81 97 77 58 43 27 32 26 17 5 358 346
182 175 173 172 167 161 158 154 154 153 151 149 147 147 146 147 144 139 135 131 128 124 120 118 113 106 99 91 83 80 89 91 99 89 46 27 29 21 2 3 0 353 337
184 181 177 176 171 164 162 158 155 153 153 151 148 148 146 146 144 138 134 131 128 124 120 114 107 98 88 78 70 71 76 94 95 54 324 341 359 350 339 344 344 340 333
184 182 181 180 175 169 165 162 157 155 154 155 152 148 147 147 143 137 133 131 127 121 112 107 98 86 75 66 63 71 73 67 81 54 271 322 313 288 324 329 334 331 324
185 181 183 182 178 173 168 166 159 158 158 156 153 149 149 148 142 137 135 130 123 116 108 99 84 73 66 69 77 69 72 64 139 305 335 330 308 307 333 328 327 326 322
185 182 184 183 181 176 172 169 164 162 159 157 153 152 150 149 144 138 135 127 118 113 101 85 74 70 77 84 87 67 61 52 295 326 321 326 300 330 325 325 327 328 326
178 181 181 184 183 178 174 171 168 165 163 161 157 155 153 152 145 141 134 125 120 107 93 83 73 81 93 88 84 63 43 26 331 323 335 346 312 329 325 331 336 335 330
176 178 182 182 183 179 177 174 172 170 168 165 160 159 158 153 149 143 135 130 115 99 86 76 80 103 99 87 74 38 4 350 326 322 331 317 324 333 335 343 342 337 332
179 180 182 181 180 179 179 178 176 174 171 170 168 165 163 158 154 147 140 128 112 94 82 83 97 111 111 69 35 2 337 331 330 340 301 314 329 339 346 343 342 344 340
179 182 183 180 179 178 179 181 180 177 175 175 173 169 170 164 158 148 134 121 112 100 93 95 110 123 89 77 26 331 318 340 1 8 288 313 332 343 337 340 344 349 349
182 183 183 180 180 179 181 183 182 181 179 180 179 174 171 168 160 150 134 122 124 107 105 115 108 124 76 351 329 316 316 324 331 323 308 327 339 331 333 343 348 347 348
183 182 183 182 181 182 184 184 185 184 183 182 181 178 178 174 168 149 132 123 111 102 104 105 125 193 243 283 315 309 315 315 317 314 322 329 324 328 339 347 350 351 354
183 184 183 183 183 186 187 188 187 187 188 185 182 181 184 176 161 156 148 137 143 68 277 236 263 243 221 261 292 306 307 306 308 317 315 315 321 338 343 347 342 351 353
181 185 186 186 187 188 190 191 190 189 190 185 184 184 184 185 179 159 167 160 210 258 287 231 222 265 223 268 298 294 300 304 307 310 321 318 325 344 340 346 344 353 354
178 185 186 189 190 191 190 190 190 190 187 185 187 187 188 189 182 183 190 223 246 271 249 186 212 262 290 302 307 295 288 290 318 318 326 326 329 336 337 348 341 346 352
178 181 188 191 191 191 190 189 188 186 183 185 187 191 195 194 190 201 202 225 242 225 250 271 287 289 311 303 297 291 296 310 315 313 319 323 323 338 338 339 335 344 350
176 177 187 191 190 185 181 184 182 182 184 184 184 185 193 206 207 204 201 216 224 215 232 265 282 285 307 294 295 283 289 300 297 297 299 311 328 326 326 324 338 341 346
185 176 183 191 189 184 180 180 179 174 175 177 179 178 185 194 209 211 215 220 227 228 247 257 270 284 298 290 290 284 302 284 290 276 297 306 304 308 325 325 333 337 341
189 180 183 188 189 185 182 181 175 170 173 182 187 189 193 202 213 225 223 228 226 233 250 263 278 297 292 295 297 294 294 285 271 260 320 305 294 316 325 337 335 333 343
190 183 184 187 190 189 185 181 181 173 177 186 194 195 202 207 216 221 220 227 229 236 253 275 284 286 289 302 316 319 289 271 258 268 315 296 312 327 341 339 332 331 333
186 184 185 188 186 186 182 184 181 174 173 186 192 197 202 204 209 208 216 227 232 245 259 268 275 293 306 320 319 323 280 279 263 293 266 289 335 341 335 333 332 331 332
185 176 167 181 189 187 186 183 183 186 185 183 188 196 195 199 204 213 216 229 239 249 255 268 295 312 308 288 320 349 311 303 318 240 286 299 336 345 346 346 353 340 338
179 174 178 193 195 193 191 192 192 191 188 194 196 187 186 193 202 214 221 227 245 234 276 300 319 306 283 301 318 347 1 314 315 310 296 311 333 350 352 356 345 335 328
196 202 228 243 230 218 200 201 200 198 191 187 185 181 185 197 206 208 213 227 222 262 275 291 275 281 302 329 352 356 335 330 280 302 310 317 325 337 340 327 325 321 316
197 193 206 215 277 265 208 202 199 194 188 188 185 185 195 200 203 207 219 210 236 241 258 251 279 305 341 358 6 3 351 343 323 323 313 316 322 330 330 322 319 307 308